Regional Weather Roundup
Issued by NWS

Home | Current Version | Previous Version | Text Only | Print | Product List | Glossary Off
Versions: 1 2 3 4 5 6 7 8 9 10 11 12 13 14 15 16 17 18 19 20 21 22 23 24 25 26 27 28 29 30 31 32 33 34 35 36 37 38 39 40 41 42 43 44 45 46 47 48 49 50

000
ASUS45 KTFX 310710
RWRMT
MONTANA REGIONAL WEATHER ROUNDUP
NATIONAL WEATHER SERVICE GREAT FALLS MT
100 AM MDT FRI JUL 31 2015

NOTE: "FAIR" INDICATES FEW OR NO CLOUDS BELOW 12000 FEET WITH NO
SIGNIFICANT WEATHER AND/OR OBSTRUCTIONS TO VISIBILITY.

MTZ001>007-043-310800-
WEST OF THE DIVIDE

CITY           SKY/WX    TMP DP  RH WIND       PRES   REMARKS
KALISPELL      SUNNY     56  43  61 N3        30.16R
MISSOULA       CLEAR     65  41  41 CALM      30.21R
BUTTE          CLEAR     55  40  56 SE6       30.35S
MULLAN PASS    CLEAR     69  26  20 N3        30.36S
DEER LODGE       N/A     55  41  58 CALM      30.33S
EUREKA           N/A     63  37  39 CALM      30.15R
HAMILTON         N/A     61  43  51 S8        30.22S
LIBBY            N/A     61  37  41 CALM      30.16R
RONAN            N/A     56  45  66 CALM      30.20R
$$

MTZ008-052>055-310800-
SOUTHWEST MONTANA

CITY           SKY/WX    TMP DP  RH WIND       PRES   REMARKS
BOZEMAN        CLEAR     56  45  66 SE5       30.27R
DILLON         CLEAR     59  42  53 S10       30.30S
W YELLOWSTONE  CLEAR     43  39  87 NW3       30.44F
THREE FORKS      N/A     55 -10   7 CALM      30.22S
TWIN BRIDGES     N/A     58  44  59 E3        30.25R
$$

MTZ009-010-012-014-046-048-049-054-310800-
EAST SLOPES AND CENTRAL MONTANA

CITY           SKY/WX    TMP DP  RH WIND       PRES   REMARKS
CUT BANK       CLEAR     64  37  36 S3        30.20S
GREAT FALLS    CLEAR     59  43  55 SW7       30.18R
MALMSTROM AFB  CLEAR     60  45  57 S10       30.17S
HELENA         CLEAR     66  39  37 CALM      30.23S
CONRAD           N/A     54  48  80 N1        30.20S
$$

MTZ011-013-016-021-045-047-050-051-310800-
NORTH CENTRAL MONTANA

CITY           SKY/WX    TMP DP  RH WIND       PRES   REMARKS
HAVRE          CLEAR     63  51  65 E8        30.15R
LEWISTOWN      CLEAR     61  43  51 SE7       30.26R
CHINOOK          N/A     64  52  63 E7        30.16S
$$

MTZ017>020-022>027-061-062-310800-
NORTHEAST MONTANA

CITY           SKY/WX    TMP DP  RH WIND       PRES   REMARKS
GLASGOW        CLEAR     62  50  64 NE9       30.16R
JORDAN           N/A     59  44  57 CALM      30.19R
SIDNEY         CLEAR     57  48  72 W5        30.16S
WOLF POINT     CLEAR     59  49  69 E3        30.16R
MALTA            N/A     60  51  72 CALM      30.13S
PLENTYWOOD       N/A     61  50  67 CALM      30.17R
POPLAR           N/A     61  52  72 N6        30.17R
$$

MTZ028>42-056>058-310800-
SOUTHCENTRAL AND SOUTHEAST MONTANA

CITY           SKY/WX    TMP DP  RH WIND       PRES   REMARKS
BAKER          CLEAR     57  44  62 SE3       30.23S
BILLINGS       CLEAR     69  41  36 N8        30.24S
LIVINGSTON     CLEAR     54  39  57 CALM      30.29R
MILES CITY     CLEAR     67  46  47 CALM      30.20R
FORSYTH          N/A     66  45  45 CALM      30.21R
LAUREL           N/A     70  39  32 N2        30.20S
ROUNDUP          N/A     66  36  33 CALM      30.14R
$$

REGIONAL REPORTS...DAKOTAS

CITY           SKY/WX    TMP DP  RH WIND       PRES   REMARKS
WILLISTON      CLEAR     56  50  80 CALM      30.17R
MINOT          CLEAR     57  49  74 SW6       30.12S
DICKINSON      CLEAR     54  46  74 S6        30.20S
BEACH          FAIR      50  50 100 S3        30.22S
CROSBY         FAIR      54  54 100 SW9       30.15S
BISMARCK       CLEAR     58  52  80 CALM      30.17R
GRAND FORKS    CLEAR     56  51  84 W7        30.02R
FARGO          CLEAR     59  53  80 W7        30.05S
BUFFALO SD       N/A     65  48  54 CALM      30.18R
RAPID CITY     CLEAR     60  51  72 N8        30.22S
$$

REGIONAL REPORTS...WYOMING/IDAHO/WASHINGTON

CITY           SKY/WX    TMP DP  RH WIND       PRES   REMARKS
GILLETTE       CLEAR     54  41  61 S6        30.29S
SHERIDAN       CLEAR     55  45  68 SW5       30.27R
BUFFALO WY     CLEAR     64  38  38 W7        30.34S
CODY           CLEAR     63  34  34 S7        30.32F
YELLOWSTONE LA   N/A     44  34  67 CALM      30.54S
IDAHO FALLS    CLEAR     55  44  66 N3        30.28S
SALMON         CLEAR     57  46  67 CALM      30.24R
BOISE          CLEAR     73  35  25 SE6       30.12R
SPOKANE        CLEAR     73  33  23 CALM      30.10R
$$

REGIONAL REPORTS...ALBERTA

CITY           SKY/WX    TMP DP  RH WIND       PRES   REMARKS
EDMONTON       MOCLDY    61  48  63 SW5       30.14R
CALGARY        CLEAR     59  45  58 VRB2      30.22R
LETHBRIDGE     CLEAR     61  48  63 E6        30.15R
MEDICINE HAT   CLEAR     61  45  55 NE6       30.15R
WATERTON GATE    N/A     52  41  66 SW7         N/A
CARDSTON         N/A     59  37  44 SW7         N/A
MILK RIVER       N/A     59  45  58 NW3         N/A
ONEFOUR          N/A     61  48  63 E12         N/A
$$

REGIONAL REPORTS...SASKATCHEWAN

CITY           SKY/WX    TMP DP  RH WIND       PRES   REMARKS
SWIFT CURRENT  CLEAR     61  48  63 E5        30.18R
REGINA         CLEAR     54  52  94 W5        30.14R
SASKATOON      PTCLDY    50  46  87 W8        30.14R
CYPRESS HILLS    N/A     59  39  47 SE6         N/A
VAL MARIE        N/A     52  50  93 CALM        N/A
ROCKGLEN         N/A     55  52  88 SW6         N/A
ASSINIBOIA       N/A     50  46  87 S5          N/A
$$


USA.gov is the U.S. government's official web portal to all federal, state and local government web resources and services.